Location: Belmont
(13.0833°N, 59.6000°W)
Time: 04:13:47
(UTC+00:00)

Meteor 2-9 Rocket - Pass Details

Date: 17 September 2019
Orbit: 791 x 896 km, 81.3° (Epoch: 17 October)

Event Time Altitude Azimuth Distance (km) Brightness Sun altitude
Rises 22:32:01 0° 186° (S) 3,500 7.4 -9.0°
Reaches altitude 10° 22:34:28 10° 187° (S) 2,559 6.7 -9.6°
Maximum altitude 22:40:19 85° 275° (W) 895 4.4 -11.1°
Drops below altitude 10° 22:46:06 10° 4° (N) 2,527 6.7 -12.5°
Sets 22:48:31 0° 5° (N) 3,453 7.4 -13.1°
